Flag for United Kingdom Weather past 2 weeks in Edinburgh, Scotland, United Kingdom

Now
57 °F

Sunny.


Feels Like: 56 °F
Forecast: 53 / 58 °F
Wind: 7 mph from Southwest

Location: Edinburgh Airport

Current Time: Sep 22, 2014 at 7:54:20 PM

Latest Report: Sep 22, 2014 at 7:20 PM


Visibility: 10 mi

Pressure: 30.15 "Hg

Humidity: 82%

Dew point: 52 °F

Location of EdinburghLocation

Historic Weather in Edinburgh — Graph

°F

Edinburgh temperature yesterday

Maximum temperature yesterday: 61 °F (at 2:20 PM)
Minimum temperature yesterday: 41 °F (at 2:50 AM)
Average temperature yesterday: 50 °F

Past Weeks' High & Low Weather Summary

 TemperatureHumidityPressure
High66 °F (Sep 11, 2:50 PM)100% (Sep 9, 3:50 AM)30.42 "Hg (Sep 9, 3:50 AM)
Low41 °F (Sep 8, 7:20 AM)49% (Sep 8, 3:20 PM)29.92 "Hg (Sep 18, 4:50 AM)
Average55 °F89%30.16 "Hg
* Reported Sep 7 6:20 PM — Sep 22 6:20 PM, Edinburgh, Weather by CustomWeather, © 2014

Note: Actual official high and low records may vary slightly from our data, if they occured in-between our weather recording intervals... More about our weather records

Advertising

Edinburgh weather history for previous 24 hours

 ConditionsComfort  
Time TempWeatherWind HumidityBarometerVisibility
6:20 PM
Sep 22
59 °FSunny.8 mph77%30.15 "Hg10 mi
5:50 PM59 °FPassing clouds.9 mph77%30.15 "HgN/A
5:20 PM61 °FPassing clouds.13 mph68%30.15 "HgN/A
4:50 PM63 °FPassing clouds.12 mph64%30.15 "HgN/A
4:20 PM63 °FPassing clouds.13 mph64%30.18 "HgN/A
3:50 PM64 °FPassing clouds.13 mph60%30.18 "HgN/A
3:20 PM63 °FPassing clouds.10 mph64%30.18 "HgN/A
2:50 PM64 °FPassing clouds.13 mph60%30.18 "HgN/A
2:20 PM63 °FPassing clouds.12 mph64%30.18 "HgN/A
1:50 PM63 °FPassing clouds.12 mph68%30.21 "HgN/A
1:20 PM61 °FScattered clouds.8 mph72%30.21 "HgN/A
12:50 PM59 °FScattered clouds.12 mph77%30.21 "HgN/A
12:20 PM59 °FScattered clouds.9 mph77%30.24 "Hg6 mi
11:50 AM59 °FScattered clouds.9 mph77%30.24 "Hg5 mi
11:20 AM57 °FPartly sunny.8 mph82%30.24 "Hg5 mi
10:50 AM57 °FPartly sunny.12 mph82%30.24 "Hg5 mi
10:20 AM55 °FPartly sunny.7 mph88%30.24 "Hg5 mi
9:50 AM55 °FPartly sunny.2 mph88%30.24 "Hg4 mi
9:20 AM54 °FPartly sunny.3 mph94%30.24 "Hg4 mi
8:50 AM54 °FPartly sunny.2 mph88%30.24 "Hg4 mi
8:20 AM52 °FPartly sunny.3 mph94%30.24 "Hg4 mi
7:50 AM50 °FPassing clouds.6 mph94%30.27 "Hg4 mi
7:20 AM50 °FPassing clouds.5 mph94%30.27 "Hg4 mi
6:50 AM50 °FPassing clouds.5 mph88%30.27 "Hg4 mi
6:20 AM48 °FClear.3 mph94%30.24 "Hg5 mi
5:50 AM46 °FClear.No wind93%30.24 "Hg6 mi
5:20 AM46 °FClear.No wind93%30.27 "HgN/A
4:50 AM46 °FPassing clouds.3 mph93%30.27 "HgN/A
4:20 AM45 °FPassing clouds.2 mph93%30.27 "HgN/A
3:50 AM46 °FPassing clouds.3 mph93%30.27 "Hg4 mi
3:20 AM45 °FPassing clouds.5 mph93%30.30 "HgN/A
2:50 AM45 °FPassing clouds.5 mph93%30.30 "HgN/A
2:20 AM45 °FPassing clouds.5 mph93%30.30 "Hg5 mi
1:50 AM46 °FClear.2 mph93%30.33 "Hg5 mi
12:50 AM48 °FClear.5 mph87%30.30 "Hg4 mi
12:20 AM46 °FClear.5 mph93%30.30 "Hg4 mi
11:50 PM
Sep 21
45 °FClear.3 mph93%30.30 "HgN/A
11:20 PM43 °FClear.5 mph93%30.30 "Hg10 mi
10:50 PM45 °FClear.5 mph93%30.30 "Hg10 mi
10:20 PM46 °FClear.2 mph93%30.30 "Hg10 mi
9:20 PM46 °FClear.2 mph100%30.30 "Hg10 mi
8:50 PM46 °FClear.No wind93%30.30 "Hg10 mi
8:20 PM48 °FClear.No wind87%30.30 "Hg10 mi
7:50 PM50 °FSunny.No wind82%30.30 "Hg10 mi
7:20 PM52 °FSunny.No wind77%30.30 "Hg10 mi
Weather by CustomWeather, © 2014

See weather overviewHow to use our weather pages